AirNav   ATP
 
 352 users online  

T24 Pineland Municipal Airport
Pineland, Texas, USA

GOING TO PINELAND?


FAA INFORMATION EFFECTIVE 13 SEPTEMBER 2018

Location

FAA Identifier: T24
Lat/Long: 31-14-00.6790N / 093-58-54.6800W
31-14.011317N / 093-58.911333W
31.2335219 / -93.9818556
(estimated)
Elevation: 260 ft. / 79 m (estimated)
Variation: 05E (1985)
From city: 1 mile SW of PINELAND, TX
Time zone: UTC -5 (UTC -6 during Standard Time)
Zip code: 75968

Airport Operations

Airport use: Open to the public
Activation date: 03/1961
Control tower: no
ARTCC: HOUSTON CENTER
FSS: MONTGOMERY COUNTY FLIGHT SERVICE STATION
NOTAMs facility: CXO (NOTAM-D service available)
Attendance: UNATNDD
Wind indicator: lighted
Segmented circle: yes
Lights: ACTVT MIRL RY 17/35 - CTAF.
Beacon: white-green (lighted land airport)
Operates sunset to sunrise.

Airport Communications

CTAF/UNICOM: 122.8

Nearby radio navigation aids

VOR radial/distance  VOR name  Freq  Var
LFKr079/38.0LUFKIN VORTAC112.1005E
FXUr279/(39.8)POLK VOR108.4002E

 
NDB name  Hdg/Dist  Freq  Var  ID
AMASON162/37.034104ECZJ -.-. --.. .---

Airport Services

Airframe service: NONE
Powerplant service: NONE
Bottled oxygen: NONE
Bulk oxygen: NONE

Runway Information

Runway 17/35

Dimensions: 3700 x 75 ft. / 1128 x 23 m
Surface: asphalt, in fair condition
Weight bearing capacity: 
Single wheel: 14.0
Runway edge lights: medium intensity
Runway edge markings: MARKINGS FADED.
RUNWAY 17  RUNWAY 35
Gradient: 0.5%0.5%
Traffic pattern: leftleft
Markings: basic, in poor conditionbasic, in poor condition
Obstructions: 65 ft. trees, 1521 ft. from runway, 20:1 slope to clear24 ft. trees, 975 ft. from runway, 32:1 slope to clear

Airport Ownership and Management from official FAA records

Ownership: Publicly-owned
Owner: CITY OF PINELAND
PO BOX 6
PINELAND, TX 75968
Phone 409-584-2390
Manager: CHARLES CORLEY
PO BOX 6
PINELAND, TX 75968
Phone 409-584-2390

Airport Operational Statistics

Aircraft based on the field: 7
Single engine airplanes: 7
    
Aircraft operations: avg 54/week *
75% local general aviation
25% transient general aviation
* for 12-month period ending 13 January 2016

Instrument Procedures

There are no published instrument procedures at T24.

Some nearby airports with instrument procedures:

KJAS - Jasper County Airport-Bell Field (21 nm S)
3R4 - Hart Airport (32 nm NE)
L39 - Leesville Airport (33 nm E)
F17 - Center Municipal Airport (37 nm N)
KLFK - Angelina County Airport (39 nm W)
 
Loc | Ops | Rwys | IFR | FBO | Links
Com | Nav | Svcs | Stats | Notes


 
Area around T24 (Pineland Municipal Airport)
 
Road maps at: MapQuest Bing Google
 
Aerial photo
WARNING: Photo may not be current or correct
Aerial photo of T24 (Pineland Municipal Airport)
Do you have a better or more recent aerial photo of Pineland Municipal Airport that you would like to share? If so, please send us your photo.

 
Sectional chart

 
Airport distance calculator
Flying to Pineland Municipal Airport? Find the distance to fly.

From to T24

Sunrise and sunset
Times for 22-Sep-2018
 Local
(UTC-5)
 Zulu
(UTC)
Morning civil twilight06:4111:41
Sunrise07:0512:05
Sunset19:1200:12
Evening civil twilight19:3600:36

Current date and time
Zulu (UTC)  22-Sep-2018 06:48:17
Local (UTC-5)  22-Sep-2018 01:48:17
 
METAR
KJAS 
21nm S 
220635Z AUTO 00000KT 10SM -DZ SCT019 BKN050 BKN060 18/18 A3000 RMK AO2 P0001 T01800175
KF17 
37nm N 
220635Z AUTO 00000KT 7SM -DZ OVC003 24/23 A3000 RMK AO2 P0001 T02370230
KAQV 
38nm NE 
220556Z AUTO 00000KT 10SM CLR 23/17 A2999 RMK AO2 SLP152 T02330172 10244 20233 403390222 58003 $
KLFK 
39nm W 
220631Z AUTO 12004KT 10SM FEW006 SCT020 BKN028 24/23 A2998 RMK AO2 T02390233
KDRI 
41nm SE 
220635Z AUTO 10003KT 10SM CLR 25/24 A3000 RMK AO2 LTG DSNT S T02450237
TAF
KLFK 
39nm W 
220534Z 2206/2306 11004KT P6SM VCSH SCT005 BKN120 OVC250 TEMPO 2209/2212 5SM -SHRA BR OVC005 FM221200 13006KT P6SM VCTS OVC005CB TEMPO 2214/2218 3SM -TSRA BR OVC025CB FM221800 VRB06KT 4SM -TSRA BR OVC030CB FM230000 VRB06KT P6SM VCTS OVC035CB
NOTAMs
Click for the latest NOTAMs
NOTAMs are issued by the DoD/FAA and will open in a separate window not controlled by AirNav.

 

 
 

Would you like to see your business listed on this page?

 If your business provides an interesting product or service to pilots, flight crews, aircraft, or users of the Pineland Municipal Airport, you should consider listing it here.  To start the listing process, click on the button below
 
Add a business
 

Other Pages about Pineland Municipal Airport

Update a link
 
Copyright © AirNav, LLC. All rights reserved. Privacy Policy  Contact